Location: Caltech
(34.1382°N, 118.1253°W)
Time: 00:37:46
(UTC-07:00)

KITSAT 1 - Visible Passes

Search period start: 01 September 2014 00:00
Search period end: 11 September 2014 00:00
Orbit: 1311 x 1319 km, 66.1° (Epoch: 31 August)

Date Brightness Start Highest point End Pass type
(mag) Time Alt. Az. Time Alt. Az. Time Alt. Az.
01 Sep 11.5 00:06:02 32° N 00:06:02 32° N 00:10:06 10° NNE visible
01 Sep 12.3 01:57:59 13° NW 01:59:16 13° NW 02:02:55 10° N visible
01 Sep 12.1 22:29:19 15° NE 22:29:19 15° NE 22:30:26 10° NE visible
02 Sep 11.6 00:21:15 32° NNW 00:21:15 32° NNW 00:25:57 10° NNE visible
02 Sep 11.8 22:44:28 22° NE 22:44:28 22° NE 22:46:55 10° NE visible
03 Sep 11.8 00:36:24 27° NNW 00:36:24 27° NNW 00:41:38 10° N visible
03 Sep 11.4 22:59:31 30° NNE 22:59:31 30° NNE 23:03:08 10° NNE visible
04 Sep 12.1 00:51:27 20° NW 00:51:27 20° NW 00:57:05 10° N visible
04 Sep 11.2 23:14:27 38° N 23:14:27 38° N 23:19:09 10° NNE visible
05 Sep 12.4 01:06:21 13° NW 01:08:15 14° NW 01:12:05 10° N visible
05 Sep 11.7 21:37:16 19° NE 21:37:16 19° NE 21:39:27 10° NE visible
05 Sep 11.3 23:29:09 38° NNW 23:29:09 38° NNW 23:35:01 10° NNE visible
06 Sep 12.9 05:24:44 10° NNE 05:26:55 11° NE 05:29:07 10° NE visible
06 Sep 11.1 21:51:40 34° NE 21:51:40 34° NE 21:55:57 10° NE visible
06 Sep 11.6 23:43:31 29° NW 23:43:50 30° NW 23:50:43 10° N visible
07 Sep 12.6 05:39:04 10° N 05:43:51 16° NE 05:48:36 10° ENE visible
07 Sep 10.2 22:05:16 68° NNE 22:05:16 68° NNE 22:12:11 10° NNE visible
07 Sep 12.1 23:57:01 16° WNW 00:00:26 21° NW 00:06:11 10° N visible
08 Sep 12.5 05:54:20 10° N 06:00:34 24° NE 06:06:46 10° E visible
08 Sep 11.1 20:19:28 10° SSE 20:25:29 23° ESE 20:31:28 10° NE visible
08 Sep 10.5 22:12:10 10° SW 22:20:10 65° WNW 22:28:13 10° NNE visible
09 Sep 12.5 00:13:15 10° WNW 00:17:14 14° NW 00:21:14 10° N visible
09 Sep 10.6 20:34:02 10° S 20:41:14 37° ESE 20:48:27 10° NE visible
09 Sep 11.1 22:28:49 10° SW 22:36:26 44° NW 22:44:05 10° NNE visible
10 Sep 12.9 04:34:03 10° NNE 04:35:54 11° NE 04:37:45 10° NE visible
10 Sep 10.2 20:49:16 10° S 20:57:07 57° ESE 21:04:58 10° NE visible
10 Sep 11.7 22:45:56 10° WSW 22:52:51 30° NW 22:59:48 10° N visible
